Powrót do katalogu

SL-6 R/B(2)

AktywnyHEO
NORAD 11079·ROCKET BODY·🇷🇺 Russia

Wystrzelony Oct 13, 1978 z Plesetsk Cosmodrome

Loading…

Następne Przeloty (najbliższe 24 godziny)

TLE

ŚwieżeSource: Space-Track

Epoka: Sep 8, 2026, 00:44 UTC

1 11079U 78095E   26251.03092902  .00000000  00000-0 -41410-2 0  9991
2 11079  63.9608 262.3277 6959514 273.2163  16.1163  2.23600456 94418

Śledź SL-6 R/B(2) w czasie rzeczywistym z AllMySat

Download on the App Store